Location: Großmugl Leeberg
(48.4883°N, 16.2231°E)
Time: 15:09:30
(UTC+02:00)

ISS - Visible Passes

Search period start: 07 May 2021 00:00
Search period end: 17 May 2021 00:00
Orbit: 418 x 421 km, 51.6° (Epoch: 07 May)

Date Brightness Start Highest point End Pass type
(mag) Time Alt. Az. Time Alt. Az. Time Alt. Az.
07 May -2.1 02:02:25 28° E 02:02:25 28° E 02:04:11 10° ENE visible
07 May -3.0 03:35:21 17° W 03:37:44 51° N 03:41:04 10° ENE visible
08 May -0.9 01:16:28 11° ENE 01:16:28 11° ENE 01:16:41 10° ENE visible
08 May -3.3 02:49:24 43° WNW 02:50:15 60° NNW 02:53:37 10° ENE visible
08 May -2.8 04:24:03 10° WNW 04:27:21 49° N 04:30:41 10° E visible
09 May -3.1 02:03:26 53° NE 02:03:26 53° NE 02:06:09 10° ENE visible
09 May -2.8 03:36:34 10° WNW 03:39:52 47° N 03:43:09 10° ENE visible
10 May -1.6 01:17:27 21° ENE 01:17:27 21° ENE 01:18:43 10° ENE visible
10 May -2.8 02:50:23 21° WNW 02:52:20 47° N 02:55:38 10° ENE visible
10 May -3.4 04:26:03 10° WNW 04:29:26 69° NNE 04:32:48 10° E visible
11 May -3.0 02:04:21 46° NW 02:04:49 51° N 02:08:09 10° ENE visible
11 May -3.1 03:38:36 10° WNW 03:41:57 56° NNE 03:45:17 10° E visible
12 May -2.6 01:18:16 40° NE 01:18:16 40° NE 01:20:41 10° ENE visible
12 May -2.8 02:51:12 10° WNW 02:54:27 50° N 02:57:45 10° E visible
12 May -3.8 04:28:00 10° WNW 04:31:23 67° SSW 04:34:44 10° ESE visible
13 May -1.5 00:32:07 19° ENE 00:32:07 19° ENE 00:33:14 10° ENE visible
13 May -2.7 02:05:02 22° WNW 02:06:56 47° N 02:10:13 10° ENE visible
13 May -3.8 03:40:34 10° WNW 03:43:57 89° NNE 03:47:20 10° ESE visible
13 May -0.9 23:45:45 10° ENE 23:45:45 10° ENE 23:45:47 10° ENE visible
14 May -2.8 01:18:38 38° NW 01:19:24 47° N 01:22:42 10° ENE visible
14 May -3.5 02:53:07 10° WNW 02:56:30 69° NNE 02:59:52 10° ESE visible
14 May -2.9 04:30:07 10° W 04:33:09 31° SW 04:36:11 10° SSE visible
14 May -1.8 21:17:18 10° SSE 21:18:44 12° SE 21:20:11 10° ESE visible
14 May -3.8 22:51:40 10° SW 22:54:59 61° SSE 22:58:20 10° ENE visible
15 May -2.9 00:28:35 10° W 00:31:53 51° N 00:35:12 10° ENE visible
15 May -3.1 02:05:40 10° WNW 02:09:00 56° NNE 02:12:21 10° E visible
15 May -3.5 03:42:34 10° WNW 03:45:49 46° SSW 03:49:03 10° SE visible
15 May -3.4 22:04:25 10° SW 22:07:36 41° SSE 22:10:49 10° ENE visible
15 May -3.2 23:41:02 10° W 23:44:23 59° NNW 23:47:44 10° ENE visible
16 May -2.9 01:18:11 10° WNW 01:21:30 50° N 01:24:48 10° E visible
16 May -3.9 02:55:04 10° WNW 02:58:26 67° SSW 03:01:47 10° SE visible
16 May -1.9 04:32:55 10° WSW 04:34:44 14° SW 04:36:32 10° SSW visible
16 May -2.8 21:17:22 10° SSW 21:20:16 28° SE 21:23:12 10° E visible
16 May -3.6 22:53:31 10° WSW 22:56:53 73° NNW 23:00:16 10° ENE visible
